STARLINK-35289 (65809 NORAD) Tracking and Keplerian Element Data

This shows tracking and keplerian element data for the satellite.

Feedback or suggestion? Click here.




ElementValue
Catalog65809
NameSTARLINK-35289
Epoch Orbit1291
Epoch Day353.5569119
Epoch Year2025
RAAN213.993
Inclination97.603
Eccentricity0.0002533
Argument of Perigee86.7029
Mean Anonmoly273.4487
Mean Motion15.05647284
Decay Rate1.222E-05
L11 65809U 25218U 25353.55691190 .00001222 00000+0 88919-4 0 9995
L22 65809 97.6030 213.9930 0002533 86.7029 273.4487 15.05647284 12917



Live tracking and technical data element details for STARLINK-35289 (NORAD 65809). STARLINK-35289 can be tracked NOW for your location showing map with azimuth and elevation plus other details from your city location.







IsCatalogInMostPopularTable: catalog: 65809, numindb: 10
Update: records affected: 1



GetName: 65809 STARLINK-35289

Hit Count: updated at: Tue, 21 Apr 2026 19:27:09 GMT